Location: Unspecified
(35.7250°N, 0.0000°E)
Time: 02:31:53
(UTC+00:00)

Tiros 1 - Pass Details

Date: 03 July 2019
Orbit: 630 x 664 km, 48.4° (Epoch: 22 July)

Event Time Altitude Azimuth Distance (km) Brightness Sun altitude
Rises 21:47:31 0° 299° (WNW) 2,969 11.6 -23.0°
Reaches altitude 10° 21:50:38 10° 320° (NW) 2,051 10.8 -23.4°
Maximum altitude 21:53:44 17° 1° (N) 1,625 9.8 -23.7°
Drops below altitude 10° 21:56:49 10° 43° (NE) 2,036 9.9 -24.0°
Sets 21:59:53 0° 63° (ENE) 2,937 10.5 -24.4°
